Location: Clinton NY
(43.0598°N, 75.3602°W)
Time: 05:45:33
(UTC-04:00)

Daily predictions for brighter satellites

Satellite Brightness Start Highest point End
(mag) Time Altitude Azimuth Time Altitude Azimuth Time Altitude Azimuth
Cosmos 1346 Rocket 4.2 00:00:57 10° N 00:03:26 35° NNE 00:03:26 35° NNE
Cosmos 1447 Rocket 4.3 00:03:50 10° N 00:10:03 77° E 00:10:37 71° SE
Okean 2 4.4 00:06:53 10° NNW 00:10:02 45° NW 00:10:02 45° NW
NOSS 3-1 (A) 4.3 00:03:58 10° NW 00:11:22 53° WSW 00:12:57 47° SSW
Cosmos 2219 4.1 00:08:12 10° N 00:13:27 38° ENE 00:14:20 36° ENE
Cosmos 1943 Rocket 2.2 00:21:41 70° ENE 00:21:41 70° ENE 00:26:51 10° NNE
CZ-4B R/B 4.0 00:23:18 18° N 00:23:18 18° N 00:24:20 10° N
Cosmos 968 Rocket 3.8 00:17:42 10° NNW 00:22:41 56° ENE 00:22:41 56° ENE
Terra 4.1 00:23:26 14° W 00:23:54 14° W 00:26:25 10° WNW
Cosmos 2100 Rocket 4.0 00:26:37 63° ESE 00:26:56 64° E 00:33:14 10° NNE
ISS -0.4 00:26:23 10° NW 00:27:59 18° NNW 00:27:59 18° NNW
ATLAS 2AS CENTAUR R/B 2.9 00:24:32 10° NW 00:32:43 89° SW 00:34:22 61° SSE
Cosmos 1459 Rocket 3.9 00:34:36 67° E 00:34:42 68° E 00:40:43 10° NNE
Cosmos 1602 Rocket 4.4 00:32:11 10° NNW 00:35:33 50° NNW 00:35:33 50° NNW
Cosmos 1241 Rocket 4.4 00:33:25 10° NNW 00:39:56 87° WSW 00:40:24 78° SSE
Cosmos 1626 Rocket 4.4 00:35:36 10° NNW 00:38:57 48° NNW 00:38:57 48° NNW
USA 234 3.5 00:34:40 10° NE 00:41:09 67° NW 00:45:23 23° WSW
Cosmos 2016 Rocket 4.2 00:41:13 54° E 00:41:15 54° E 00:47:10 10° NNE
Cosmos 1455 Rocket 4.4 00:44:16 33° WNW 00:44:16 33° WNW 00:47:38 10° N
Cosmos 1975 4.2 00:46:22 37° N 00:46:22 37° N 00:48:58 10° N
MOS 1-B Rocket 4.0 00:45:42 73° SE 00:46:22 84° ENE 00:53:28 10° NNW
Cosmos 2061 Rocket 3.9 00:51:28 80° S 00:51:53 89° ESE 00:58:20 10° N
Cosmos 44 Rocket 3.9 00:49:24 10° NW 00:53:22 52° NW 00:53:22 52° NW
ALOS 2 3.8 00:56:39 37° NW 00:56:39 37° NW 00:59:38 10° NNW
Cosmos 1802 Rocket 3.8 00:56:59 82° SSE 00:57:14 85° E 01:03:35 10° N
Cosmos 2173 Rocket 3.9 00:58:53 77° SW 00:59:17 82° W 01:05:41 10° N
Lacrosse 5 4.1 01:00:32 10° WNW 01:04:39 24° NNW 01:08:46 10° NNE
CZ-2C R/B 3.5 01:06:05 51° NE 01:06:05 51° NE 01:10:23 10° N
Cosmos 1777 Rocket 4.2 01:10:49 10° NNW 01:15:18 66° NNW 01:15:18 66° NNW
Cosmos 44 3.7 01:11:51 10° NNW 01:16:11 61° NNW 01:16:11 61° NNW
H-2A R/B 3.8 01:13:07 10° N 01:16:44 38° NW 01:16:44 38° NW
Cosmos 1725 Rocket 3.9 01:19:35 72° ESE 01:19:47 72° E 01:25:57 10° NNE
ATLAS CENTAUR R/B 3.8 01:26:45 20° E 01:26:45 20° E 01:29:01 10° ENE
Cosmos 2208 Rocket 4.2 01:31:59 64° NE 01:31:59 64° NE 01:36:35 10° NNE
Cosmos 2098 Rocket 4.2 01:31:21 68° S 01:32:25 88° E 01:40:08 10° N
SeaSat 1 4.0 01:31:59 25° E 01:33:36 31° NE 01:37:57 10° N
Lacrosse 5 rocket 4.5 01:33:34 10° NNW 01:34:22 11° N 01:35:10 10° N
CZ-2C R/B 2.8 01:32:07 10° N 01:37:09 64° WNW 01:37:09 64° WNW
Tsikada Rocket 3.9 01:32:06 10° N 01:38:27 83° W 01:38:51 78° SSW
Cosmos 1340 4.5 01:38:07 10° N 01:40:10 30° N 01:40:10 30° N
Cosmos 2058 Rocket 3.8 01:48:19 52° N 01:48:19 52° N 01:51:44 10° N
UNK 4.3 01:35:37 10° WSW 01:47:29 58° NNW 01:50:59 10° ENE
Cosmos 2082 4.1 01:42:48 10° NNW 01:48:23 57° ENE 01:49:17 51° E
Cosmos 1656 Rocket 4.3 01:49:07 44° WNW 01:49:43 45° WNW 01:55:07 10° NNE
Meteor 2-9 Rocket 4.1 01:52:13 83° SE 01:52:21 84° E 01:58:09 10° NNE
NOSS 3-4 (A) 4.4 01:49:06 10° NNW 01:55:54 54° NE 02:02:23 13° ESE
NOSS 3-4 (C) 4.4 01:49:10 10° NNW 01:56:00 54° NE 02:02:39 12° ESE
Cosmos 2227 Rocket 2.3 01:50:34 10° NNW 01:56:15 69° ENE 01:56:52 64° ESE
Cosmos 2219 4.4 01:52:34 10° NW 01:56:13 29° W 01:56:13 29° W
Cosmos 1943 Rocket 4.2 02:03:11 15° W 02:05:37 19° NW 02:09:36 10° N
Meteor 2-17 Rocket 4.3 02:07:28 74° SW 02:08:01 83° W 02:14:10 10° N
Cosmos 1666 4.4 02:10:48 29° NNW 02:10:48 29° NNW 02:12:59 10° N
PSLV R/B 4.1 02:06:39 10° NNE 02:10:37 58° ENE 02:10:37 58° ENE
Cosmos 1898 Rocket 3.5 02:11:27 10° NNW 02:16:49 74° ENE 02:17:17 69° ESE
Cosmos 2297 Rocket 2.3 02:11:19 10° NNW 02:16:59 72° ENE 02:18:02 57° SE
Cosmos 2150 Rocket 4.0 02:12:18 10° NNW 02:17:32 73° ENE 02:17:52 70° E
Cosmos 2278 3.5 02:19:10 80° SW 02:19:30 87° WNW 02:25:13 10° NNE
Cosmos 2233 Rocket 4.0 02:20:31 59° WSW 02:21:10 62° W 02:27:16 10° N
Cosmos 2369 3.5 02:21:59 79° S 02:22:21 87° ESE 02:28:04 10° NNE
ATLAS 2AS CENTAUR R/B 4.4 02:17:14 10° WNW 02:21:47 20° W 02:21:47 20° W
Cosmos 1937 Rocket 3.8 02:18:12 10° NNW 02:23:21 60° ENE 02:24:22 50° ESE
Cosmos 1464 Rocket 4.2 02:22:37 52° SSE 02:23:59 66° E 02:30:17 10° NNE
Meteor 1-15 Rocket 4.5 02:26:07 55° W 02:26:39 57° WNW 02:32:30 10° N
Okean 3 Rocket 4.4 02:22:50 10° N 02:27:03 43° ENE 02:27:19 43° E
Cosmos 2228 4.1 02:31:40 36° NW 02:31:40 36° NW 02:34:54 10° N
Meteor 2-5 Rocket 3.8 02:28:07 10° N 02:34:02 80° E 02:35:23 56° SSE
Landsat 4 4.4 02:38:21 55° NNE 02:38:21 55° NNE 02:41:32 10° N
Cosmos 405 Rocket 3.4 02:36:00 10° N 02:39:14 55° N 02:39:14 55° N
ERS-2 3.9 02:38:30 10° NE 02:41:30 25° E 02:41:30 25° E
Cosmos 1656 3.6 02:44:01 62° S 02:44:54 75° ESE 02:50:33 10° NNE
ARIANE 5 R/B 4.2 02:42:46 10° NE 02:46:59 25° E 02:49:12 19° SE
Cosmos 1513 Rocket 4.3 02:49:03 54° S 02:50:34 85° E 02:56:40 10° N
CZ-2D R/B 4.1 02:47:36 10° NE 02:51:46 22° E 02:54:53 14° SE
AQUA 3.8 02:51:00 10° NNE 02:55:46 70° ESE 02:56:24 61° SSE
Cosmos 1766 4.0 02:58:28 45° ESE 02:58:39 46° E 03:02:26 10° NNE
BREEZE-M DEB (TANK) 3.7 02:50:17 10° WNW 02:58:46 43° WSW 02:58:46 43° WSW
USA 161 3.6 03:03:58 25° ENE 03:03:58 25° ENE 03:05:59 10° NNE
ATLAS CENTAUR R/B 2.2 03:03:04 47° W 03:03:57 54° NW 03:08:51 10° NNE
Meteor 1-24 Rocket 3.8 02:58:17 10° N 03:04:04 83° E 03:06:30 38° SSE
IRS-P3 4.2 03:01:40 10° N 03:06:59 68° WNW 03:08:06 53° SW
Cosmos 1814 Rocket 4.2 03:06:30 52° WSW 03:07:30 62° WNW 03:12:50 10° NNE
ADEOS 3.8 03:04:34 10° NNE 03:09:46 63° ESE 03:11:27 41° SSE
Cosmos 1891 Rocket 4.4 03:08:05 48° SSW 03:09:48 72° W 03:15:58 10° N
Meteor 1-22 Rocket 4.4 03:08:04 42° S 03:10:18 79° E 03:16:25 10° NNE
Cosmos 1441 Rocket 3.8 03:06:49 10° N 03:10:47 57° ENE 03:11:37 46° SE
SeaSat 1 3.2 03:11:46 36° W 03:11:46 36° W 03:15:38 10° NW
IRAS Rocket 4.2 03:05:36 10° NNE 03:11:16 83° ESE 03:13:04 46° S
Cosmos 1408 Rocket 4.0 03:07:09 10° N 03:11:30 59° E 03:12:57 38° SE
Spot 4 Rocket 4.4 03:07:13 10° NNE 03:12:20 59° E 03:14:08 38° SSE
CBERS-1 3.9 03:09:25 10° N 03:14:34 78° WNW 03:15:48 53° SSW
NOSS 2-1 (D) 4.4 03:14:08 34° WNW 03:14:51 37° NW 03:19:09 10° NNE
Okean O Rocket 4.4 03:14:09 10° ENE 03:15:06 11° E 03:16:02 10° ESE
NOSS 2-1 (C) 4.4 03:15:33 34° WNW 03:16:18 36° NW 03:20:36 10° NNE
Cosmos 1766 Rocket 3.9 03:13:35 10° N 03:17:59 64° E 03:19:35 37° SSE
Resurs 1-4 Rocket 3.2 03:16:01 10° NNE 03:20:56 39° E 03:23:57 21° SSE
IRS-1D 4.2 03:16:33 10° NNE 03:21:20 45° E 03:23:43 27° SSE
Cosmos 1707 3.9 03:18:18 10° NNW 03:21:07 32° WNW 03:21:07 32° WNW
Cosmos 990 Rocket 4.1 03:17:10 10° NNW 03:22:20 57° WSW 03:23:20 48° SSW
Cosmos 1697 Rocket 2.7 03:21:51 45° SW 03:23:36 73° WNW 03:29:17 10° NNE
Cosmos 1461 3.7 03:20:11 10° NNW 03:24:15 50° NE 03:28:08 10° SE
Cosmos 1805 4.4 03:23:30 29° SE 03:24:46 39° E 03:28:26 10° NNE
Cosmos 2034 Rocket 4.2 03:25:17 39° SW 03:27:20 55° WNW 03:33:25 10° N
Nadezhda 4 Rocket 3.9 03:21:53 10° N 03:28:04 75° W 03:31:08 32° S
BREEZE-M R/B 4.3 03:21:58 10° WNW 03:28:08 47° SW 03:34:24 10° SSE
SL-08 R/B 3.8 03:30:09 40° W 03:30:14 40° W 03:34:37 10° NNW
Cosmos 1980 Rocket 2.1 03:31:15 39° SSW 03:33:27 84° ESE 03:39:10 10° NNE
SAR-Lupe-3 4.4 03:37:22 64° SSE 03:37:52 90° WSW 03:41:23 10° NNW
Cosmos 2227 Rocket 3.9 03:36:05 10° WNW 03:38:39 17° W 03:38:39 17° W
Cosmos 1758 3.5 03:38:48 39° SSE 03:40:08 67° E 03:44:07 10° NNE
Cosmos 1953 2.4 03:41:06 40° S 03:42:27 75° E 03:46:33 10° NNE
Cosmos 1437 3.2 03:40:58 10° N 03:44:17 60° ENE 03:45:33 33° SE
NOSS 3-4 (A) 4.3 03:40:21 10° NW 03:46:41 36° WSW 03:49:39 26° SSW
NOSS 3-4 (C) 4.3 03:40:26 10° NW 03:46:47 37° WSW 03:49:54 26° SSW
Cosmos 2322 Rocket 3.1 03:43:46 19° SSE 03:47:23 43° ESE 03:52:40 10° NE
NPP 4.5 03:42:42 10° N 03:47:35 36° WNW 03:49:32 27° WSW
SL-16 R/B 2.4 03:45:21 13° SSE 03:50:59 83° WSW 03:57:12 10° NNW
Cosmos 1655 Rocket 4.4 03:44:44 10° N 03:51:07 66° E 03:57:28 10° SSE
Meteor 1-21 Rocket 4.3 03:48:36 10° N 03:54:35 86° E 04:00:30 10° S
Cosmos 841 Rocket 4.1 03:56:06 29° WSW 03:58:18 44° WNW 04:03:21 10° N
Cosmos 2026 Rocket 4.1 03:52:16 10° N 03:58:39 79° E 04:04:53 10° S
SL-24 R/B - RUBIN 2 4.5 03:56:07 26° SSW 03:59:27 71° ESE 04:05:51 10° NE
Cosmos 1378 4.1 03:56:24 10° NNW 03:59:47 31° W 03:59:52 31° W
USA 81 4.4 03:55:41 15° S 04:00:02 65° E 04:05:17 10° N
Cosmos 2297 Rocket 3.8 03:56:58 10° WNW 03:59:47 16° W 03:59:47 16° W
Cosmos 1763 Rocket 4.3 03:59:24 26° WSW 04:01:33 36° WNW 04:06:20 10° N
Cosmos 1076 Rocket 4.2 03:59:20 10° NNW 04:03:14 34° W 04:04:05 31° WSW
Geosat 4.4 03:58:56 10° NNE 04:03:49 52° WNW 04:06:24 26° WSW
Cosmos 1125 Rocket 3.5 03:59:52 10° NNW 04:04:59 57° WSW 04:09:12 15° S
GPS 2-04 Rocket1 4.4 04:09:35 18° S 04:09:35 18° S 04:11:23 10° SSE
Cosmos 2195 Rocket 4.4 04:04:05 10° N 04:10:12 75° W 04:16:17 10° S
Cosmos 1634 Rocket 4.0 04:06:31 22° SSW 04:10:43 67° W 04:17:01 10° N
BREEZE-M DEB (TANK) 4.4 04:07:57 10° WNW 04:11:18 35° N 04:15:23 10° ENE
ERS-2 3.6 04:12:18 10° NNW 04:15:19 23° WNW 04:16:20 21° W
DELTA 2 R/B (1) 4.5 04:12:49 22° SSW 04:15:31 34° SSE 04:20:31 10° E
CZ-3A R/B 3.5 04:07:23 18° WSW 04:16:17 69° NW 04:20:43 10° NE
Cosmos 540 Rocket 3.5 04:16:37 22° SSW 04:19:55 71° WNW 04:25:06 10° NNE
MOS 1-B 4.3 04:15:10 10° NNE 04:21:01 83° WNW 04:25:53 15° SSW
SL-16 R/B 2.3 04:18:33 17° SSW 04:22:56 79° ESE 04:28:39 10° NNE
Milstar 3 Cent rocket 3.7 04:21:57 17° SSW 04:23:30 19° S 04:28:12 10° SE
Cosmos 1500 Rocket 3.5 04:19:34 10° NNW 04:23:56 69° W 04:28:12 10° S
Aureole 1 Rocket 4.2 04:19:01 17° SSW 04:24:03 88° WNW 04:32:01 10° NNE
RESURS DK-1 2.5 04:20:19 10° NW 04:24:20 50° WSW 04:28:19 10° S
Cosmos 1470 2.8 04:21:21 16° S 04:24:25 83° E 04:28:26 10° N
IRS-1C Rocket 4.5 04:20:05 10° NNE 04:25:19 64° ESE 04:30:32 10° S
ARIANE 5 R/B 3.1 04:21:24 10° N 04:26:15 42° WNW 04:29:33 19° SW
Cosmos 2058 4.5 04:23:59 10° N 04:27:57 38° ENE 04:31:53 10° SE
MOZ.5/SAFIR/RUBIN 5/SL-8 4.2 04:24:01 10° SSE 04:28:40 67° ENE 04:33:19 10° N
CZ-3 R/B 4.2 04:05:11 17° SW 04:28:52 40° S 04:37:49 10° ESE
Cosmos 2263 Rocket 2.7 04:23:39 10° NNW 04:29:12 62° ENE 04:34:41 10° SE
Cosmos 1743 Rocket 4.0 04:26:03 10° NNW 04:30:07 40° W 04:33:03 17° SSW
CZ-2D R/B 2.5 04:26:51 10° N 04:32:08 51° WNW 04:36:12 16° SW
Lacrosse 5 4.0 04:29:18 10° NW 04:33:43 28° NNE 04:38:05 10° E
Cosmos-2242 4.1 04:33:18 19° WSW 04:35:23 28° WNW 04:39:07 10° NNW
Cosmos 2221 3.4 04:32:27 10° SSE 04:36:33 48° E 04:40:43 10° NNE
PSLV R/B 3.7 04:35:18 10° NNE 04:39:08 82° ESE 04:42:52 10° S
Cosmos 1544 3.7 04:38:05 20° SW 04:40:11 37° WNW 04:43:37 10° N
Cosmos 1428 Rocket 4.4 04:35:28 10° N 04:41:36 75° W 04:47:40 10° S
Cosmos 2084 4.1 04:38:19 10° NNW 04:42:20 56° NE 04:46:33 10° SE
ATLAS CENTAUR R/B 4.2 04:41:55 10° WNW 04:44:08 13° NNW 04:46:21 10° N
CZ-4B R/B 3.5 04:38:52 10° NNE 04:44:23 71° ESE 04:49:46 10° S
GEOS 3 Rocket 3.7 04:40:28 10° SSE 04:45:35 57° WSW 04:50:41 10° NW
Cosmos 332 Rocket 4.4 04:43:36 16° SW 04:47:08 41° WNW 04:51:44 10° N
UNKNOWN OBJECT B 3.6 04:46:52 10° N 04:50:24 34° WNW 04:53:13 14° SW
Okean O Rocket 1.6 04:47:33 10° N 04:51:58 74° WNW 04:56:23 10° SSW
Cosmos 1733 3.3 04:48:32 11° SSW 04:52:02 57° W 04:55:49 10° N
Aureole 3 4.3 04:49:28 10° N 04:54:03 72° E 04:59:55 10° SSE
Lacrosse 5 rocket 3.0 04:51:57 10° NNW 04:55:18 33° NE 04:58:41 10° E
PAYLOAD B 4.3 04:51:50 10° NNE 04:57:29 86° WNW 05:03:03 10° SSW
Gblst 52 Del rocket 4.5 04:51:24 10° WNW 04:57:36 78° NNE 05:03:11 10° ESE
Meteor 1-16 Rocket 4.5 04:53:17 10° S 04:59:12 84° E 05:05:08 10° NNE
Resurs 1-4 Rocket 3.2 04:56:10 10° N 05:00:36 28° WNW 05:05:02 10° WSW
Cosmos 2279 Rocket 4.4 04:55:20 10° SSW 05:01:19 46° WNW 05:07:19 10° N
Thor Agena Rocket 3.4 04:57:18 10° S 05:02:20 78° WSW 05:07:25 10° NNW
Cosmos 1461 4.4 05:00:32 10° WNW 05:02:59 16° WSW 05:05:22 10° SSW
Cosmos 1538 Rocket 4.1 04:58:05 10° SSW 05:03:20 66° WNW 05:08:41 10° NNE
ARGOS Delta rocket 3.9 04:58:24 10° N 05:03:29 81° WNW 05:08:13 10° SSW
CZ-2D R/B 4.3 05:00:22 10° N 05:04:24 37° WNW 05:08:27 10° SW
PSLV R/B 4.5 05:00:37 10° NNE 05:04:45 49° E 05:08:53 10° S
Cosmos 371 Rocket 3.9 05:00:57 11° SW 05:05:18 40° WNW 05:09:51 10° N
Cosmos 923 Rocket 4.4 05:02:58 10° S 05:08:07 64° ESE 05:13:16 10° NNE
CZ-2C R/B 4.1 05:04:30 10° S 05:08:56 43° W 05:13:19 10° NNW
CZ-4B R/B 2.8 05:07:36 10° N 05:11:28 65° WNW 05:15:07 10° SSW
ADEOS Rocket 4.1 05:06:27 10° NNE 05:13:01 57° E 05:20:14 10° S
Cosmos 773 Rocket 4.0 05:09:15 10° SSW 05:14:24 87° WNW 05:19:39 10° NNE
Cosmos 1328 4.4 05:12:54 10° NNW 05:16:40 38° W 05:20:24 10° SSW
Cosmos 1674 4.2 05:14:52 10° NW 05:17:33 19° W 05:20:13 10° SW
Cosmos 2360 Rocket 2.3 05:12:19 10° SSW 05:17:56 86° ESE 05:23:37 10° NNE
Cosmos 1980 Rocket 4.0 05:14:27 10° W 05:18:13 18° NW 05:22:01 10° N
Cosmos 921 Rocket 3.4 05:15:02 10° NNW 05:19:36 76° ENE 05:24:05 10° SSE
